PROBA-1

Last updated on Mon Jun 22 2026 00:03:41 GMT+0000 (Coordinated Universal Time)

1 26958U 01049B 26172.51752390 .00001532 00000+0 10192-3 0 9990 2 26958 97.9594 181.2016 0056365 107.7234 253.0156 15.07505285344273
UTC large
Height (km)
Speed (km/s)
/
Latitude / Longitude
Inclination (degrees)
Orbital Period (minutes)
Azimuth
Elevation
Range (km)
Doppler Factor

Next 0 passes for location: London (51.5072 / 0.1276)

No passes found over London.
PROBA-1